NORTHEAST SUFFOLK  -  Air Quality Alert Air Quality Alert        NORTHERN NASSAU  -  Air Quality Alert Air Quality Alert        NORTHERN QUEENS  -  Air Quality Alert Air Quality Alert        NORTHWEST SUFFOLK  -  Air Quality Alert Air Quality Alert        SOUTHEAST SUFFOLK  -  Air Quality Alert Air Quality Alert        SOUTHERN NASSAU  -  Air Quality Alert Air Quality Alert        SOUTHERN QUEENS  -  Air Quality Alert Air Quality Alert        SOUTHWEST SUFFOLK  -  Air Quality Alert Air Quality Alert      

Active alerts

Northern Queens
  Details for Northern Queens Air Quality Alert
Southern Queens
  Details for Southern Queens Air Quality Alert
Northern Nassau
  Details for Northern Nassau Air Quality Alert
Southern Nassau
  Details for Southern Nassau Air Quality Alert
Northwest Suffolk
  Details for Northwest Suffolk Air Quality Alert
Southwest Suffolk
  Details for Southwest Suffolk Air Quality Alert
Northeast Suffolk
  Details for Northeast Suffolk Air Quality Alert
Southeast Suffolk
  Details for Southeast Suffolk Air Quality Alert


WXM80 ListenWXM80 Stop

You find our weather info also at:

UK Metoffice

WeatherCloud

Weather Underground

Northeastern Weather Network

AWEKAS

Citizen Weather Observer Program (CWOP)

HAMweather, WeatherForYou, PWS Weather


Weather Underground History page Text

Daily Summary for May 9, 2017 Units:  English    Metric   Both
« Previous Day
Next Day »
Daily Weekly Monthly Yearly Custom
  High: Low: Average:
Temperature: 58.7 °F 46.8 °F 52.3 °F
Dew Point: 45.8 °F 39.5 °F 42.4 °F
Humidity: 80 % 55 % 69 %
Wind Speed: 8.2 mph 0.0 mph 3.3 mph
Wind Gust: 15.0 mph - -
Wind:- - ENE
Pressure: 29.97 in 29.88 in -
Precipitation: 0.00 in    
Historical Graphs
 
 
Tabular Data for May 9, 2017
Time Temperature Dew Point Pressure Wind Wind Speed Wind Gust Humidity Rainfall Rate (Hourly)
00:00 50.8 °F 40.6 °F 29.91 in ENE 1.3 mph 2.3 mph 68 % 0.00 in
00:05 50.8 °F 41.0 °F 29.91 in ENE 2.0 mph 3.5 mph 69 % 0.00 in
00:10 50.8 °F 41.4 °F 29.91 in ENE 2.2 mph 3.5 mph 70 % 0.00 in
00:15 50.8 °F 41.0 °F 29.91 in ENE 2.3 mph 3.5 mph 69 % 0.00 in
00:20 50.8 °F 41.0 °F 29.91 in ENE 1.1 mph 2.3 mph 69 % 0.00 in
00:25 50.8 °F 41.7 °F 29.91 in ENE 1.0 mph 2.3 mph 71 % 0.00 in
00:30 50.7 °F 42.0 °F 29.91 in ENE 0.9 mph 2.3 mph 72 % 0.00 in
00:35 50.6 °F 41.2 °F 29.91 in ENE 1.1 mph 2.3 mph 70 % 0.00 in
00:40 50.5 °F 40.7 °F 29.91 in ENE 1.0 mph 2.0 mph 69 % 0.00 in
00:45 50.5 °F 41.1 °F 29.91 in ENE 1.0 mph 2.0 mph 70 % 0.00 in
00:50 50.5 °F 41.4 °F 29.91 in ENE 0.6 mph 2.3 mph 71 % 0.00 in
00:55 50.4 °F 41.0 °F 29.91 in ENE 1.4 mph 3.5 mph 70 % 0.00 in
01:00 50.3 °F 40.9 °F 29.91 in ENE 2.4 mph 3.0 mph 70 % 0.00 in
01:05 50.3 °F 41.3 °F 29.91 in ENE 6.0 mph 10.0 mph 71 % 0.00 in
01:11 50.3 °F 41.3 °F 29.91 in ENE 3.0 mph 9.0 mph 71 % 0.00 in
01:15 50.3 °F 42.0 °F 29.91 in ENE 6.0 mph 10.0 mph 73 % 0.00 in
01:20 50.2 °F 41.9 °F 29.91 in ENE 5.0 mph 12.0 mph 73 % 0.00 in
01:25 50.1 °F 41.4 °F 29.90 in ENE 3.0 mph 8.0 mph 72 % 0.00 in
01:31 49.9 °F 40.9 °F 29.90 in ENE 3.0 mph 7.0 mph 71 % 0.00 in
01:35 49.9 °F 41.6 °F 29.90 in East 3.0 mph 7.0 mph 73 % 0.00 in
01:40 49.7 °F 41.4 °F 29.90 in East 5.0 mph 6.0 mph 73 % 0.00 in
01:45 49.7 °F 42.1 °F 29.89 in East 5.0 mph 7.0 mph 75 % 0.00 in
01:50 49.6 °F 42.0 °F 29.89 in East 5.0 mph 10.0 mph 75 % 0.00 in
01:56 49.5 °F 41.9 °F 29.89 in East 5.0 mph 6.0 mph 75 % 0.00 in
02:01 49.4 °F 42.1 °F 29.89 in East 3.1 mph 6.9 mph 76 % 0.00 in
02:05 49.4 °F 41.8 °F 29.89 in ENE 3.0 mph 7.0 mph 75 % 0.00 in
02:10 49.2 °F 41.6 °F 29.89 in ENE 3.0 mph 5.0 mph 75 % 0.00 in
02:15 49.1 °F 41.9 °F 29.89 in East 6.0 mph 6.0 mph 76 % 0.00 in
02:20 49.0 °F 41.4 °F 29.89 in East 3.0 mph 6.0 mph 75 % 0.00 in
02:26 48.8 °F 41.6 °F 29.89 in East 5.0 mph 6.0 mph 76 % 0.00 in
02:31 48.7 °F 41.5 °F 29.89 in East 3.2 mph 6.0 mph 76 % 0.00 in
02:36 48.6 °F 41.3 °F 29.88 in East 5.0 mph 9.0 mph 76 % 0.00 in
02:41 48.5 °F 41.6 °F 29.88 in East 3.0 mph 6.0 mph 77 % 0.00 in
02:46 48.3 °F 41.1 °F 29.89 in East 3.0 mph 7.0 mph 76 % 0.00 in
02:51 48.1 °F 40.5 °F 29.88 in East 4.9 mph 6.0 mph 75 % 0.00 in
02:56 48.0 °F 41.1 °F 29.89 in East 3.0 mph 7.0 mph 77 % 0.00 in
03:01 47.8 °F 40.6 °F 29.89 in ENE 6.9 mph 9.2 mph 76 % 0.00 in
03:06 47.8 °F 40.9 °F 29.89 in ENE 5.0 mph 12.0 mph 77 % 0.00 in
03:11 47.8 °F 41.3 °F 29.89 in ENE 3.0 mph 9.0 mph 78 % 0.00 in
03:16 47.7 °F 41.2 °F 29.89 in ENE 3.0 mph 12.0 mph 78 % 0.00 in
03:21 47.7 °F 40.8 °F 29.90 in ENE 3.0 mph 10.0 mph 77 % 0.00 in
03:26 47.7 °F 40.8 °F 29.90 in ENE 8.0 mph 14.0 mph 77 % 0.00 in
03:31 47.7 °F 40.8 °F 29.90 in ENE 7.0 mph 12.0 mph 77 % 0.00 in
03:36 47.6 °F 40.7 °F 29.90 in ENE 6.0 mph 14.0 mph 77 % 0.00 in
03:41 47.6 °F 41.1 °F 29.90 in East 6.1 mph 8.1 mph 78 % 0.00 in
03:46 47.6 °F 41.1 °F 29.90 in ENE 3.0 mph 12.0 mph 78 % 0.00 in
03:51 47.5 °F 41.0 °F 29.90 in ENE 7.0 mph 12.0 mph 78 % 0.00 in
03:56 47.4 °F 40.9 °F 29.90 in ENE 6.0 mph 9.0 mph 78 % 0.00 in
04:01 47.4 °F 40.6 °F 29.90 in ENE 7.3 mph 10.4 mph 77 % 0.00 in
04:06 47.3 °F 40.5 °F 29.90 in ENE 6.0 mph 12.0 mph 77 % 0.00 in
04:11 47.3 °F 40.8 °F 29.90 in ENE 7.0 mph 13.0 mph 78 % 0.00 in
04:16 47.2 °F 41.0 °F 29.90 in ENE 6.0 mph 10.0 mph 79 % 0.00 in
04:21 47.2 °F 41.0 °F 29.90 in ENE 8.0 mph 14.0 mph 79 % 0.00 in
04:26 47.1 °F 40.9 °F 29.90 in ENE 8.2 mph 15.0 mph 79 % 0.00 in
04:31 47.0 °F 41.2 °F 29.90 in ENE 6.0 mph 10.0 mph 80 % 0.00 in
04:36 47.0 °F 41.1 °F 29.90 in ENE 6.0 mph 13.0 mph 80 % 0.00 in
04:41 46.9 °F 40.7 °F 29.90 in ENE 7.0 mph 12.0 mph 79 % 0.00 in
04:43 46.9 °F 40.7 °F 29.90 in ENE 7.1 mph 11.5 mph 79 % 0.00 in
04:48 46.9 °F 41.1 °F 29.90 in ENE 6.3 mph 10.4 mph 80 % 0.00 in
04:53 46.9 °F 40.7 °F 29.90 in NE 3.9 mph 6.9 mph 79 % 0.00 in
04:58 47.0 °F 41.1 °F 29.90 in East 5.5 mph 11.5 mph 80 % 0.00 in
05:03 47.0 °F 41.1 °F 29.90 in NE 5.5 mph 8.1 mph 80 % 0.00 in
05:09 47.0 °F 40.8 °F 29.90 in ENE 6.4 mph 10.4 mph 79 % 0.00 in
05:14 47.0 °F 40.8 °F 29.90 in ENE 3.7 mph 8.1 mph 79 % 0.00 in
05:19 47.0 °F 40.8 °F 29.90 in ENE 5.7 mph 9.2 mph 79 % 0.00 in
05:24 47.0 °F 40.8 °F 29.90 in ENE 4.7 mph 9.2 mph 79 % 0.00 in
05:29 47.1 °F 40.9 °F 29.90 in NE 5.9 mph 11.5 mph 79 % 0.00 in
05:34 47.1 °F 40.6 °F 29.90 in ENE 5.4 mph 10.4 mph 78 % 0.00 in
05:39 47.0 °F 40.2 °F 29.91 in ENE 5.7 mph 11.5 mph 77 % 0.00 in
05:44 47.0 °F 40.2 °F 29.91 in ENE 4.1 mph 6.9 mph 77 % 0.00 in
05:49 47.0 °F 40.2 °F 29.91 in East 4.9 mph 9.2 mph 77 % 0.00 in
05:54 46.9 °F 40.1 °F 29.91 in ENE 3.7 mph 5.8 mph 77 % 0.00 in
05:59 46.8 °F 39.6 °F 29.91 in ENE 4.4 mph 8.0 mph 76 % 0.00 in
06:04 46.8 °F 40.0 °F 29.91 in ENE 4.6 mph 8.1 mph 77 % 0.00 in
06:09 46.8 °F 40.0 °F 29.91 in ENE 7.0 mph 7.0 mph 77 % 0.00 in
06:14 46.9 °F 40.4 °F 29.91 in ENE 4.0 mph 7.0 mph 78 % 0.00 in
06:19 47.0 °F 40.5 °F 29.91 in ENE 5.8 mph 9.2 mph 78 % 0.00 in
06:24 47.2 °F 40.4 °F 29.92 in ENE 3.4 mph 6.9 mph 77 % 0.00 in
06:29 47.6 °F 40.7 °F 29.91 in East 5.3 mph 10.0 mph 77 % 0.00 in
06:34 47.9 °F 40.4 °F 29.92 in East 6.6 mph 9.2 mph 75 % 0.00 in
06:39 48.2 °F 40.6 °F 29.92 in ENE 4.5 mph 6.9 mph 75 % 0.00 in
06:44 48.2 °F 40.6 °F 29.92 in ENE 3.9 mph 5.8 mph 75 % 0.00 in
06:49 48.2 °F 40.6 °F 29.92 in ENE 4.6 mph 8.1 mph 75 % 0.00 in
06:54 48.1 °F 40.9 °F 29.92 in ENE 1.8 mph 3.5 mph 76 % 0.00 in
06:59 48.1 °F 40.5 °F 29.92 in East 2.6 mph 6.9 mph 75 % 0.00 in
07:04 48.1 °F 40.5 °F 29.92 in NE 4.2 mph 7.0 mph 75 % 0.00 in
07:09 48.1 °F 40.5 °F 29.92 in ENE 4.2 mph 9.2 mph 75 % 0.00 in
07:14 48.3 °F 40.4 °F 29.92 in NE 3.5 mph 9.2 mph 74 % 0.00 in
07:19 48.6 °F 40.7 °F 29.92 in ENE 3.7 mph 5.8 mph 74 % 0.00 in
07:24 49.0 °F 41.4 °F 29.92 in ENE 2.8 mph 3.5 mph 75 % 0.00 in
07:29 49.2 °F 40.6 °F 29.92 in ENE 2.0 mph 6.9 mph 72 % 0.00 in
07:34 49.2 °F 40.6 °F 29.93 in ENE 2.9 mph 8.1 mph 72 % 0.00 in
07:40 49.2 °F 40.2 °F 29.93 in ENE 3.9 mph 9.2 mph 71 % 0.00 in
07:45 49.1 °F 40.1 °F 29.93 in ENE 4.5 mph 8.1 mph 71 % 0.00 in
07:50 49.2 °F 40.9 °F 29.93 in East 4.0 mph 8.1 mph 73 % 0.00 in
07:55 49.4 °F 41.5 °F 29.93 in East 3.6 mph 9.2 mph 74 % 0.00 in
08:00 49.5 °F 40.8 °F 29.93 in ENE 3.4 mph 7.0 mph 72 % 0.00 in
08:05 49.6 °F 39.5 °F 29.93 in ENE 5.0 mph 10.4 mph 68 % 0.00 in
08:10 49.5 °F 39.7 °F 29.93 in ENE 7.3 mph 11.5 mph 69 % 0.00 in
08:15 49.7 °F 40.3 °F 29.93 in ENE 5.3 mph 8.1 mph 70 % 0.00 in
08:20 50.0 °F 39.8 °F 29.94 in ENE 6.3 mph 9.2 mph 68 % 0.00 in
08:21 50.0 °F 39.5 °F 29.93 in East 5.9 mph 9.2 mph 67 % 0.00 in
08:26 50.1 °F 39.6 °F 29.94 in ENE 6.9 mph 8.1 mph 67 % 0.00 in
08:31 50.5 °F 39.9 °F 29.94 in ENE 6.2 mph 8.1 mph 67 % 0.00 in
08:36 50.8 °F 41.0 °F 29.94 in ENE 5.6 mph 8.1 mph 69 % 0.00 in
08:41 50.8 °F 40.6 °F 29.94 in ENE 4.6 mph 9.2 mph 68 % 0.00 in
08:46 50.6 °F 39.7 °F 29.94 in East 3.1 mph 5.0 mph 66 % 0.00 in
08:51 50.7 °F 40.5 °F 29.93 in ENE 5.1 mph 9.0 mph 68 % 0.00 in
08:56 50.9 °F 41.1 °F 29.94 in ENE 2.5 mph 3.5 mph 69 % 0.00 in
09:01 51.4 °F 41.2 °F 29.94 in ENE 2.9 mph 7.0 mph 68 % 0.00 in
09:06 51.8 °F 40.8 °F 29.94 in ENE 3.8 mph 9.2 mph 66 % 0.00 in
09:11 52.2 °F 40.8 °F 29.94 in ENE 6.7 mph 9.0 mph 65 % 0.00 in
09:16 52.5 °F 40.7 °F 29.94 in East 7.4 mph 12.7 mph 64 % 0.00 in
09:21 52.7 °F 42.0 °F 29.94 in East 7.2 mph 10.4 mph 67 % 0.00 in
09:26 52.6 °F 41.9 °F 29.94 in East 6.3 mph 11.5 mph 67 % 0.00 in
09:31 52.7 °F 42.4 °F 29.94 in ENE 6.0 mph 8.1 mph 68 % 0.00 in
09:36 52.4 °F 41.4 °F 29.95 in ENE 6.6 mph 9.2 mph 66 % 0.00 in
09:41 52.2 °F 42.3 °F 29.95 in ENE 4.6 mph 7.0 mph 69 % 0.00 in
09:46 52.6 °F 42.7 °F 29.95 in ENE 4.7 mph 6.9 mph 69 % 0.00 in
09:51 53.4 °F 43.5 °F 29.95 in ENE 5.9 mph 8.0 mph 69 % 0.00 in
09:56 53.9 °F 42.4 °F 29.95 in NE 4.0 mph 9.2 mph 65 % 0.00 in
10:01 54.3 °F 43.6 °F 29.95 in ENE 3.5 mph 5.0 mph 67 % 0.00 in
10:06 54.6 °F 43.1 °F 29.95 in ENE 3.9 mph 5.8 mph 65 % 0.00 in
10:11 54.8 °F 43.3 °F 29.95 in NE 5.3 mph 6.9 mph 65 % 0.00 in
10:16 54.9 °F 42.9 °F 29.95 in ENE 6.4 mph 10.4 mph 64 % 0.00 in
10:21 54.8 °F 42.4 °F 29.95 in NE 5.5 mph 8.1 mph 63 % 0.00 in
10:26 54.9 °F 42.5 °F 29.95 in East 4.8 mph 10.4 mph 63 % 0.00 in
10:31 54.8 °F 42.0 °F 29.95 in ENE 6.1 mph 10.4 mph 62 % 0.00 in
10:36 54.6 °F 41.8 °F 29.95 in ENE 6.2 mph 9.2 mph 62 % 0.00 in
10:41 54.3 °F 42.0 °F 29.95 in NE 4.6 mph 10.4 mph 63 % 0.00 in
10:46 54.8 °F 42.9 °F 29.96 in ENE 7.9 mph 12.0 mph 64 % 0.00 in
10:52 54.9 °F 43.4 °F 29.95 in ENE 5.7 mph 10.4 mph 65 % 0.00 in
10:57 55.0 °F 42.2 °F 29.95 in NE 6.6 mph 10.4 mph 62 % 0.00 in
11:02 54.8 °F 42.9 °F 29.95 in NE 6.8 mph 10.4 mph 64 % 0.00 in
11:07 55.3 °F 43.3 °F 29.95 in ENE 6.8 mph 11.5 mph 64 % 0.00 in
11:12 55.2 °F 42.8 °F 29.95 in ENE 6.4 mph 7.0 mph 63 % 0.00 in
11:17 55.7 °F 43.7 °F 29.95 in ENE 6.2 mph 9.2 mph 64 % 0.00 in
11:22 55.9 °F 43.1 °F 29.95 in ENE 4.8 mph 8.1 mph 62 % 0.00 in
11:27 55.8 °F 42.1 °F 29.96 in ENE 3.9 mph 10.4 mph 60 % 0.00 in
11:32 56.0 °F 43.2 °F 29.95 in ENE 5.0 mph 9.2 mph 62 % 0.00 in
11:37 56.4 °F 43.5 °F 29.95 in NE 3.9 mph 9.2 mph 62 % 0.00 in
11:42 56.6 °F 42.4 °F 29.95 in East 4.6 mph 8.1 mph 59 % 0.00 in
11:47 56.1 °F 43.3 °F 29.95 in East 2.9 mph 9.2 mph 62 % 0.00 in
11:52 56.8 °F 43.5 °F 29.95 in NE 3.8 mph 6.9 mph 61 % 0.00 in
11:57 57.6 °F 42.5 °F 29.95 in ENE 6.7 mph 10.4 mph 57 % 0.00 in
12:02 57.3 °F 41.3 °F 29.95 in ENE 7.2 mph 10.4 mph 55 % 0.00 in
12:07 56.8 °F 42.2 °F 29.94 in ENE 2.9 mph 6.9 mph 58 % 0.00 in
12:12 57.1 °F 42.9 °F 29.94 in ENE 4.2 mph 8.0 mph 59 % 0.00 in
12:17 57.4 °F 44.5 °F 29.94 in ENE 2.4 mph 3.5 mph 62 % 0.00 in
12:22 57.7 °F 41.6 °F 29.94 in ENE 7.1 mph 10.0 mph 55 % 0.00 in
12:27 57.1 °F 41.5 °F 29.94 in ENE 4.3 mph 8.1 mph 56 % 0.00 in
12:32 57.3 °F 42.6 °F 29.94 in ENE 3.8 mph 6.9 mph 58 % 0.00 in
12:37 57.7 °F 41.6 °F 29.95 in ENE 3.3 mph 8.1 mph 55 % 0.00 in
12:42 57.8 °F 43.6 °F 29.95 in ENE 2.0 mph 5.8 mph 59 % 0.00 in
12:47 58.0 °F 41.9 °F 29.95 in ENE 5.9 mph 9.2 mph 55 % 0.00 in
12:52 57.8 °F 42.7 °F 29.95 in ENE 3.5 mph 6.9 mph 57 % 0.00 in
12:57 57.9 °F 43.7 °F 29.94 in ENE 2.7 mph 4.6 mph 59 % 0.00 in
13:02 58.3 °F 43.6 °F 29.94 in ENE 6.2 mph 9.2 mph 58 % 0.00 in
13:07 58.2 °F 43.9 °F 29.94 in ENE 5.4 mph 9.0 mph 59 % 0.00 in
13:12 58.0 °F 43.7 °F 29.94 in ENE 3.4 mph 10.4 mph 59 % 0.00 in
13:17 58.3 °F 44.0 °F 29.94 in NE 6.2 mph 9.2 mph 59 % 0.00 in
13:22 58.4 °F 44.1 °F 29.95 in ENE 5.7 mph 11.0 mph 59 % 0.00 in
13:27 58.4 °F 43.2 °F 29.95 in ENE 4.2 mph 6.9 mph 57 % 0.00 in
13:32 58.3 °F 43.6 °F 29.94 in ENE 3.1 mph 10.4 mph 58 % 0.00 in
13:37 57.9 °F 42.8 °F 29.94 in ENE 4.1 mph 10.4 mph 57 % 0.00 in
13:42 57.6 °F 43.4 °F 29.94 in NE 5.1 mph 11.5 mph 59 % 0.00 in
13:47 57.2 °F 43.9 °F 29.94 in NE 7.3 mph 10.0 mph 61 % 0.00 in
13:52 57.3 °F 44.0 °F 29.94 in ENE 4.9 mph 9.2 mph 61 % 0.00 in
13:57 57.6 °F 43.8 °F 29.95 in ENE 3.3 mph 6.9 mph 60 % 0.00 in
14:02 58.2 °F 44.8 °F 29.95 in ENE 3.2 mph 6.9 mph 61 % 0.00 in
14:05 58.4 °F 44.6 °F 29.94 in ENE 5.4 mph 8.1 mph 60 % 0.00 in
14:10 58.2 °F 43.0 °F 29.94 in ENE 4.1 mph 10.4 mph 57 % 0.00 in
14:15 58.3 °F 43.6 °F 29.94 in ENE 3.5 mph 10.4 mph 58 % 0.00 in
14:20 58.0 °F 44.2 °F 29.94 in ENE 2.4 mph 8.1 mph 60 % 0.00 in
14:25 58.1 °F 44.7 °F 29.94 in ENE 3.7 mph 8.0 mph 61 % 0.00 in
14:30 58.2 °F 44.8 °F 29.93 in NE 3.6 mph 9.2 mph 61 % 0.00 in
14:35 58.2 °F 44.8 °F 29.93 in ENE 4.8 mph 8.1 mph 61 % 0.00 in
14:40 58.2 °F 45.2 °F 29.93 in NE 4.9 mph 8.1 mph 62 % 0.00 in
14:45 58.1 °F 44.3 °F 29.93 in ENE 2.9 mph 5.8 mph 60 % 0.00 in
14:50 58.1 °F 45.1 °F 29.93 in ENE 4.0 mph 4.0 mph 62 % 0.00 in
14:55 58.3 °F 45.8 °F 29.93 in NE 1.6 mph 3.5 mph 63 % 0.00 in
15:00 58.2 °F 45.7 °F 29.93 in ENE 1.7 mph 6.9 mph 63 % 0.00 in
15:05 58.1 °F 43.8 °F 29.94 in ENE 4.4 mph 8.1 mph 59 % 0.00 in
15:10 58.0 °F 45.5 °F 29.93 in ENE 2.2 mph 9.2 mph 63 % 0.00 in
15:15 58.0 °F 45.5 °F 29.93 in ENE 1.6 mph 6.9 mph 63 % 0.00 in
15:20 58.3 °F 45.8 °F 29.93 in ENE 4.4 mph 9.2 mph 63 % 0.00 in
15:25 58.7 °F 45.7 °F 29.93 in ENE 3.1 mph 7.0 mph 62 % 0.00 in
15:30 58.4 °F 44.6 °F 29.93 in NE 2.7 mph 9.2 mph 60 % 0.00 in
15:35 58.1 °F 44.7 °F 29.92 in ENE 5.3 mph 9.2 mph 61 % 0.00 in
15:40 57.8 °F 45.3 °F 29.92 in ENE 0.8 mph 2.3 mph 63 % 0.00 in
15:45 58.3 °F 45.8 °F 29.93 in ENE 4.6 mph 9.0 mph 63 % 0.00 in
15:50 57.6 °F 43.8 °F 29.92 in East 2.4 mph 8.1 mph 60 % 0.00 in
15:55 57.1 °F 44.6 °F 29.92 in ENE 1.3 mph 3.5 mph 63 % 0.00 in
16:00 56.7 °F 44.2 °F 29.92 in ENE 1.7 mph 3.5 mph 63 % 0.00 in
16:06 56.4 °F 44.8 °F 29.92 in ENE 1.0 mph 7.0 mph 65 % 0.00 in
16:11 56.4 °F 44.8 °F 29.92 in ENE 1.0 mph 3.0 mph 65 % 0.00 in
16:16 56.2 °F 45.0 °F 29.92 in ENE 1.0 mph 2.0 mph 66 % 0.00 in
16:21 56.2 °F 45.0 °F 29.91 in ENE 1.0 mph 4.0 mph 66 % 0.00 in
16:26 56.1 °F 44.5 °F 29.92 in ENE 1.0 mph 4.0 mph 65 % 0.00 in
16:31 56.0 °F 44.8 °F 29.92 in ENE 2.0 mph 3.0 mph 66 % 0.00 in
16:36 56.0 °F 44.8 °F 29.92 in ENE 1.0 mph 4.0 mph 66 % 0.00 in
16:41 56.2 °F 45.4 °F 29.91 in ENE 1.0 mph 2.0 mph 67 % 0.00 in
16:46 56.4 °F 45.6 °F 29.91 in ENE 2.0 mph 3.0 mph 67 % 0.00 in
16:51 56.3 °F 43.4 °F 29.91 in ENE 1.0 mph 3.0 mph 62 % 0.00 in
16:56 56.3 °F 43.4 °F 29.92 in ENE 1.0 mph 5.0 mph 62 % 0.00 in
17:01 56.3 °F 43.0 °F 29.92 in NE 1.1 mph 3.5 mph 61 % 0.00 in
17:06 56.4 °F 42.2 °F 29.92 in ENE 1.3 mph 3.5 mph 59 % 0.00 in
17:11 56.6 °F 42.0 °F 29.92 in ENE 2.6 mph 3.5 mph 58 % 0.00 in
17:16 56.6 °F 42.0 °F 29.92 in ENE 1.6 mph 2.3 mph 58 % 0.00 in
17:21 56.5 °F 41.9 °F 29.93 in NE 2.4 mph 3.5 mph 58 % 0.00 in
17:26 56.4 °F 42.7 °F 29.92 in ENE 0.3 mph 2.3 mph 60 % 0.00 in
17:31 56.2 °F 42.5 °F 29.92 in Calm   2.3 mph 60 % 0.00 in
17:36 56.1 °F 43.3 °F 29.92 in ENE 0.3 mph 2.3 mph 62 % 0.00 in
17:41 56.1 °F 44.5 °F 29.92 in ENE 0.8 mph 3.5 mph 65 % 0.00 in
17:46 56.0 °F 44.0 °F 29.92 in ENE 0.8 mph 3.5 mph 64 % 0.00 in
17:51 55.8 °F 43.8 °F 29.92 in Calm   1.2 mph 64 % 0.00 in
17:56 55.7 °F 44.5 °F 29.93 in ENE 0.3 mph 1.2 mph 66 % 0.00 in
18:01 55.7 °F 44.1 °F 29.93 in ENE 1.2 mph 3.5 mph 65 % 0.00 in
18:06 55.6 °F 44.4 °F 29.93 in ENE 1.9 mph 3.5 mph 66 % 0.00 in
18:11 55.5 °F 44.3 °F 29.93 in ENE 0.8 mph 3.5 mph 66 % 0.00 in
18:16 55.2 °F 43.6 °F 29.93 in NE 2.3 mph 3.5 mph 65 % 0.00 in
18:21 55.0 °F 43.4 °F 29.94 in ENE 2.3 mph 3.5 mph 65 % 0.00 in
18:26 54.8 °F 43.7 °F 29.94 in ENE 0.8 mph 3.5 mph 66 % 0.00 in
18:31 54.6 °F 43.5 °F 29.94 in ENE 3.0 mph 4.6 mph 66 % 0.00 in
18:36 54.5 °F 43.8 °F 29.94 in NE 2.7 mph 4.6 mph 67 % 0.00 in
18:42 54.3 °F 44.0 °F 29.94 in East 3.9 mph 5.0 mph 68 % 0.00 in
18:47 53.9 °F 43.6 °F 29.94 in ENE 5.3 mph 6.9 mph 68 % 0.00 in
18:52 53.7 °F 44.1 °F 29.94 in ENE 0.7 mph 4.6 mph 70 % 0.00 in
18:57 53.6 °F 44.4 °F 29.94 in ENE 2.6 mph 3.5 mph 71 % 0.00 in
19:02 53.5 °F 44.0 °F 29.94 in NE 1.4 mph 3.5 mph 70 % 0.00 in
19:07 53.3 °F 43.8 °F 29.95 in ENE 4.2 mph 7.0 mph 70 % 0.00 in
19:12 53.1 °F 43.2 °F 29.95 in ENE 4.8 mph 6.9 mph 69 % 0.00 in
19:17 53.0 °F 43.8 °F 29.95 in ENE 3.8 mph 8.0 mph 71 % 0.00 in
19:22 52.9 °F 44.5 °F 29.95 in ENE 3.4 mph 5.8 mph 73 % 0.00 in
19:27 52.7 °F 43.9 °F 29.95 in ENE 1.3 mph 3.5 mph 72 % 0.00 in
19:32 52.6 °F 44.2 °F 29.95 in ENE 0.5 mph 3.0 mph 73 % 0.00 in
19:37 52.6 °F 44.2 °F 29.95 in ENE 2.8 mph 6.0 mph 73 % 0.00 in
19:42 52.5 °F 44.4 °F 29.95 in ENE 0.3 mph 1.2 mph 74 % 0.00 in
19:47 52.4 °F 44.4 °F 29.96 in ENE 2.0 mph 3.5 mph 74 % 0.00 in
19:52 52.3 °F 43.9 °F 29.95 in ENE 1.3 mph 3.5 mph 73 % 0.00 in
19:57 52.2 °F 43.8 °F 29.96 in ENE 1.1 mph 3.5 mph 73 % 0.00 in
20:02 52.1 °F 43.3 °F 29.96 in ENE 1.1 mph 3.5 mph 72 % 0.00 in
20:07 52.1 °F 43.3 °F 29.96 in ENE 0.3 mph 2.3 mph 72 % 0.00 in
20:12 52.1 °F 43.7 °F 29.96 in Calm   1.2 mph 73 % 0.00 in
20:17 52.0 °F 43.6 °F 29.95 in ENE 0.9 mph 2.3 mph 73 % 0.00 in
20:22 52.0 °F 44.0 °F 29.96 in Calm     74 % 0.00 in
20:27 51.9 °F 43.9 °F 29.96 in Calm   1.2 mph 74 % 0.00 in
20:32 51.9 °F 43.5 °F 29.96 in Calm     73 % 0.00 in
20:38 51.8 °F 43.4 °F 29.95 in Calm     73 % 0.00 in
20:43 51.8 °F 43.4 °F 29.96 in Calm     73 % 0.00 in
20:48 51.7 °F 43.0 °F 29.96 in Calm     72 % 0.00 in
20:53 51.7 °F 43.0 °F 29.96 in ENE 0.1 mph 1.2 mph 72 % 0.00 in
20:58 51.6 °F 42.9 °F 29.96 in Calm     72 % 0.00 in
21:03 51.5 °F 42.8 °F 29.96 in ENE 0.1 mph 1.2 mph 72 % 0.00 in
21:08 51.5 °F 42.8 °F 29.96 in Calm     72 % 0.00 in
21:13 51.4 °F 42.7 °F 29.97 in Calm     72 % 0.00 in
21:18 51.4 °F 42.7 °F 29.97 in Calm     72 % 0.00 in
21:23 51.3 °F 42.6 °F 29.97 in Calm     72 % 0.00 in
21:28 51.2 °F 42.5 °F 29.97 in Calm     72 % 0.00 in
21:33 51.1 °F 42.4 °F 29.97 in Calm     72 % 0.00 in
21:38 51.1 °F 42.4 °F 29.97 in Calm     72 % 0.00 in
21:43 51.0 °F 42.6 °F 29.97 in Calm     73 % 0.00 in
21:48 50.8 °F 42.5 °F 29.97 in Calm     73 % 0.00 in
21:53 50.8 °F 42.5 °F 29.97 in Calm     73 % 0.00 in
21:58 50.7 °F 42.4 °F 29.97 in Calm     73 % 0.00 in
22:03 50.6 °F 42.3 °F 29.97 in Calm     73 % 0.00 in
22:08 50.5 °F 42.5 °F 29.97 in Calm     74 % 0.00 in
22:13 50.5 °F 42.5 °F 29.97 in Calm     74 % 0.00 in
22:18 50.4 °F 42.4 °F 29.97 in Calm     74 % 0.00 in
22:23 50.3 °F 42.3 °F 29.97 in Calm     74 % 0.00 in
22:29 50.2 °F 42.2 °F 29.97 in Calm     74 % 0.00 in
22:34 50.1 °F 42.1 °F 29.97 in Calm     74 % 0.00 in
22:39 50.1 °F 42.5 °F 29.97 in Calm     75 % 0.00 in
22:44 49.9 °F 42.3 °F 29.97 in Calm     75 % 0.00 in
22:49 49.8 °F 42.2 °F 29.97 in Calm     75 % 0.00 in
22:54 49.7 °F 42.1 °F 29.96 in Calm     75 % 0.00 in
22:59 49.6 °F 42.0 °F 29.96 in Calm     75 % 0.00 in
23:04 49.5 °F 42.2 °F 29.96 in Calm     76 % 0.00 in
23:09 49.4 °F 42.1 °F 29.96 in Calm     76 % 0.00 in
23:14 49.2 °F 42.0 °F 29.96 in Calm     76 % 0.00 in
23:19 49.1 °F 41.9 °F 29.96 in Calm     76 % 0.00 in
23:24 49.0 °F 41.8 °F 29.96 in Calm     76 % 0.00 in
23:29 49.0 °F 41.8 °F 29.96 in Calm     76 % 0.00 in
23:34 48.9 °F 42.0 °F 29.96 in Calm     77 % 0.00 in
23:39 48.7 °F 41.8 °F 29.95 in Calm     77 % 0.00 in
23:44 48.6 °F 41.7 °F 29.95 in Calm     77 % 0.00 in
23:49 48.5 °F 41.6 °F 29.96 in Calm     77 % 0.00 in
23:54 48.4 °F 41.9 °F 29.96 in Calm     78 % 0.00 in
23:59 48.3 °F 42.1 °F 29.96 in Calm     79 % 0.00 in
Crab Meadow Weather
Compliments of Weather Underground - 3 mb

Script developed by  Jim McMurry - jmcmurry@mwt.net Adapted for the template by  Wim van der Kuil - Leuven-Template.eu

Weather Terms: Lake Effect Snow Warning - Lake effect snowfall of 6 inches or more in 12 hours or less, or 8 inches or more in 24 hours or less.